Location: Gloden
(48.4833°N, 15.3167°E)
Time: 16:44:46
(UTC+00:00)

Cosmos 1844 Rocket - Pass Details

Date: 15 December 2019
Orbit: 825 x 844 km, 71.0° (Epoch: 19 January)

Event Time Altitude Azimuth Distance (km) Brightness Sun altitude
Rises 04:04:31 0° 184° (S) 3,355 5.9 -25.1°
Reaches altitude 10° 04:07:02 10° 178° (S) 2,424 5.2 -24.7°
Maximum altitude 04:12:14 43° 109° (ESE) 1,155 3.8 -23.9°
Drops below altitude 10° 04:17:28 10° 39° (NE) 2,436 5.4 -23.0°
Sets 04:20:00 0° 33° (NNE) 3,373 6.1 -22.6°
